JE2VQT-13 Weather Reports


Display with metric or nautical units.
time (UTC)temp
F
wind
direction
speed
MPH
gust
MPH
rain 1hr
in
rain 24hr
in
rain mn
in
humidity
%
barometer
mb
20181120152332 67 68 0.0 0.0 0.00 0.00 0.00 12 1025.0
20181120151433 67 68 0.0 0.0 0.00 0.00 0.00 12 1025.0
20181120143347 67 22 0.0 0.0 0.00 0.00 0.00 12 1025.0
20181120142753 67 22 0.0 0.0 0.00 0.00 0.00 12 1024.6
20181120134451 67 22 1.0 1.0 0.00 0.00 0.00 12 1025.0
20181120133842 67 38 0.0 0.0 0.00 0.00 0.00 12 1025.0
20181120132451 67 45 0.0 1.0 0.00 0.00 0.00 12 1024.0
20181120125834 67 68 0.0 0.0 0.00 0.00 0.00 12 1024.0
20181120121343 67 45 0.0 0.0 0.00 0.00 0.00 12 1023.0
20181120105949 67 68 0.0 0.0 0.00 0.00 0.00 12 1023.0
20181120103354 67 135 0.0 0.0 0.00 0.00 0.00 12 1023.0
20181120102742 67 307 0.0 0.0 0.00 0.00 0.00 12 1023.4
20181120095824 67 89 0.0 1.0 0.00 0.00 0.00 12 1023.0
20181120094445 67 68 0.0 1.0 0.00 0.00 0.00 12 1022.0
20181120093452 67 68 1.0 0.0 0.00 0.00 0.00 12 1022.0
20181120092749 67 68 1.0 0.0 0.00 0.00 0.00 12 1022.0
20181120091831 67 68 1.0 0.0 0.00 0.00 0.00 12 1022.0
20181120090858 67 68 1.0 0.0 0.00 0.00 0.00 12 1022.0
20181120085751 67 68 0.0 0.0 0.00 0.00 0.00 12 1021.7
20181120084452 67 83 1.0 2.0 0.00 0.00 0.00 12 1021.0
20181120083831 67 135 0.0 0.0 0.00 0.00 0.00 12 1021.0
20181120082433 67 45 1.0 1.0 0.00 0.00 0.00 12 1021.0
20181120081300 67 45 1.0 1.0 0.00 0.00 0.00 12 1021.0
20181120080740 67 22 2.0 2.0 0.00 0.00 0.00 12 1021.0
20181120075423 67 112 1.0 1.0 0.00 0.00 0.00 12 1021.0
20181120073258 67 180 1.0 2.0 0.00 0.00 0.00 12 1020.0
20181120072623 67 22 1.0 0.0 0.00 0.00 0.00 12 1019.0
20181120071846 67 102 0.0 3.0 0.00 0.00 0.00 12 1019.0
20181120070434 67 37 1.0 1.0 0.00 0.00 0.00 12 1019.0
20181120063451 67 74 1.0 2.0 0.00 0.00 0.00 12 1019.0
20181120062741 67 0 1.0 1.0 0.00 0.00 0.00 12 1019.0
20181120061441 67 135 1.0 0.0 0.00 0.00 0.00 12 1019.0
20181120060732 67 43 1.0 3.0 0.00 0.00 0.00 12 1019.0
20181120055939 67 22 2.0 3.0 0.00 0.00 0.00 12 1019.0
20181120055356 68 47 3.0 5.0 0.00 0.00 0.00 12 1019.0
20181120053758 69 55 1.0 2.0 0.00 0.00 0.00 12 1019.0
20181120053327 69 106 0.0 2.0 0.00 0.00 0.00 12 1019.0
20181120052621 69 62 1.0 2.0 0.00 0.00 0.00 12 1019.0
20181120051821 68 85 2.0 2.0 0.00 0.00 0.00 12 1019.0
20181120050836 69 73 2.0 1.0 0.00 0.00 0.00 12 1019.0
20181120045617 69 60 1.0 1.0 0.00 0.00 0.00 12 1019.0
20181120044412 70 22 1.0 2.0 0.00 0.00 0.00 12 1019.0
20181120043421 70 80 2.0 2.0 0.00 0.00 0.00 12 1019.0
20181120042333 69 88 1.0 3.0 0.00 0.00 0.00 12 1019.0
20181120041848 71 69 1.0 1.0 0.00 0.00 0.00 12 1019.0
20181120040553 71 37 0.0 1.0 0.00 0.00 0.00 12 1019.0
20181120035359 71 338 0.0 0.0 0.00 0.00 0.00 12 1018.0
20181120034449 70 0 1.0 1.0 0.00 0.00 0.00 12 1018.0
20181120033355 70 18 0.0 1.0 0.00 0.00 0.00 12 1018.0
20181120032449 70 34 0.0 0.0 0.00 0.00 0.00 12 1019.0
20181120031815 70 11 0.0 0.0 0.00 0.00 0.00 12 1019.0
20181120030438 69 22 0.0 1.0 0.00 0.00 0.00 12 1019.0
20181120025259 69 38 0.0 1.0 0.00 0.00 0.00 12 1019.0
20181120024838 68 2 1.0 1.0 0.00 0.00 0.00 12 1019.0
20181120023420 68 46 1.0 2.0 0.00 0.00 0.00 12 1019.0
20181120022626 68 22 1.0 0.0 0.00 0.00 0.00 12 1019.0
20181120021851 67 17 1.0 1.0 0.00 0.00 0.00 12 1019.0
20181120020739 68 68 0.0 0.0 0.00 0.00 0.00 12 1019.0
20181120015856 67 42 1.0 1.0 0.00 0.00 0.00 12 1019.0
20181120014740 66 22 0.0 0.0 0.00 0.00 0.00 12 1020.0
20181120013719 66 4 1.0 2.0 0.00 0.00 0.00 13 1020.0
20181120005447 65 45 0.0 1.0 0.00 0.00 0.00 13 1021.0
20181120004900 65 13 1.0 1.0 0.00 0.00 0.00 13 1021.0
20181120004336 66 16 1.0 2.0 0.00 0.00 0.00 13 1021.0
20181120002345 66 22 0.0 1.0 0.00 0.00 0.00 13 1021.0
20181119232744 63 53 1.0 2.0 0.00 0.00 0.00 13 1020.5
20181119231356 62 22 1.0 1.0 0.00 0.00 0.00 14 1021.0
20181119225407 62 22 0.0 0.0 0.00 0.00 0.00 14 1020.0
20181119224948 61 22 0.0 0.0 0.00 0.00 0.00 14 1020.0
20181119223840 60 22 0.0 0.0 0.00 0.00 0.00 14 1021.0
20181119222831 54 45 0.0 0.0 0.00 0.00 0.00 18 1021.0
20181119222341 54 45 0.0 0.0 0.00 0.00 0.00 18 1020.0
20181119220949 52 45 0.0 0.0 0.00 0.00 0.00 18 1021.0
20181119215840 51 45 0.0 1.0 0.00 0.00 0.00 19 1021.0
20181119214858 51 22 0.0 0.0 0.00 0.00 0.00 19 1020.0
20181119212351 51 0 0.0 0.0 0.00 0.00 0.00 19 1020.0
20181119211357 51 0 0.0 0.0 0.00 0.00 0.00 19 1020.0
20181119210338 52 22 0.0 0.0 0.00 0.00 0.00 19 1020.0
20181119205634 52 22 0.0 0.0 0.00 0.00 0.00 18 1020.0
20181119204425 52 45 0.0 0.0 0.00 0.00 0.00 18 1020.0
20181119203440 52 68 0.0 0.0 0.00 0.00 0.00 18 1020.0
20181119202514 52 8 0.0 0.0 0.00 0.00 0.00 18 1019.0
20181119201318 52 338 0.0 0.0 0.00 0.00 0.00 18 1019.0
20181119195714 52 68 0.0 0.0 0.00 0.00 0.00 18 1019.0
20181119194348 52 0 0.0 1.0 0.00 0.00 0.00 18 1019.0
20181119193454 52 202 0.0 0.0 0.00 0.00 0.00 18 1018.0
20181119192627 53 68 0.0 0.0 0.00 0.00 0.00 18 1019.0
20181119192546 53 55 0.0 0.0 0.00 0.00 0.00 18 1019.0
20181119190901 52 22 0.0 0.0 0.00 0.00 0.00 21 1019.0
20181119185425 52 22 0.0 0.0 0.00 0.00 0.00 21 1019.0
20181119184951 53 22 0.0 0.0 0.00 0.00 0.00 21 1019.0
20181119182958 53 68 0.0 0.0 0.00 0.00 0.00 21 1019.0
20181119182724 53 48 0.0 0.0 0.00 0.00 0.00 21 1018.5
20181119182447 53 22 0.0 0.0 0.00 0.00 0.00 21 1018.0
20181119175928 53 0 0.0 0.0 0.00 0.00 0.00 21 1018.0
20181119173854 53 22 0.0 0.0 0.00 0.00 0.00 21 1018.0
20181119172948 53 0 0.0 0.0 0.00 0.00 0.00 23 1018.0
20181119172501 53 0 0.0 0.0 0.00 0.00 0.00 23 1018.0
20181119170953 53 22 0.0 0.0 0.00 0.00 0.00 23 1018.0
20181119165731 53 22 0.0 0.0 0.00 0.00 0.00 23 1017.5
20181119165448 53 22 0.0 0.0 0.00 0.00 0.00 23 1017.0
20181119163845 53 338 0.0 0.0 0.00 0.00 0.00 23 1018.0
20181119162007 54 22 0.0 0.0 0.00 0.00 0.00 20 1018.0
20181119155926 54 338 0.0 0.0 0.00 0.00 0.00 20 1018.0
20181119155858 54 338 0.0 0.0 0.00 0.00 0.00 20 1018.0
20181119153836 55 45 0.0 0.0 0.00 0.00 0.00 20 1018.0